Bowling Green, KY

7:46 PM CDT on July 20, 2017 (GMT -0500)
Bowling Green-Warren County Regional

Weather History for KBWG - January, 2014

Change the Weather History Date:

Wednesday, January 22, 2014

  Actual Average Record
Temperature  
Mean Temperature 14 °F 36 °F  
Max Temperature 23 °F 45 °F 71 °F (1999)
Min Temperature 5 °F 26 °F -7 °F (1984)
Degree Days  
Heating Degree Days 51 29  
Month to date heating degree days 728 651  
Since 1 July heating degree days 2415 2235  
Cooling Degree Days 0 0  
Month to date cooling degree days 0 0  
Year to date cooling degree days 0 0  
Moisture  
Dew Point 6 °F    
Average Humidity 71    
Maximum Humidity 88    
Minimum Humidity 54    
Precipitation  
Precipitation 0.00 in 0.12 in 2.72 in (1999)
Month to date precipitation 1.73 2.52  
Year to date precipitation 1.73 2.52  
Snow  
Snow 0.00 in 0.20 in 12.20 in (2016)
Month to date snowfall 1.5 2.2  
Since 1 July snowfall 2.7 3.4  
Snow Depth 1.00 in    
Sea Level Pressure  
Sea Level Pressure 30.20 in    
Wind  
Wind Speed 6 mph (SSW)    
Max Wind Speed 14 mph    
Max Gust Speed 21 mph    
Visibility 10 miles    
Events      
T = Trace of Precipitation, MM = Missing Value Source: NWS Daily Summary

Daily Weather History Graph

Daily Weather History Graph

Search for Another Location

Airport or City:

Trip Planner

Search our weather history database for the weather conditions in past years. The results will help you decide how hot, cold, wet, or windy it might be!

Date:

Astronomy

Jan. 22, 2014 Rise Set
Actual Time 6:54 AM CST 5:00 PM CST
Civil Twilight 6:26 AM CST 5:27 PM CST
Nautical Twilight 5:55 AM CST 5:59 PM CST
Astronomical Twilight 5:24 AM CST 6:30 PM CST
Moon 11:21 PM CST (1/22) 10:05 AM CST (1/22)
Length of Visible Light 11h 01m
Length of Day
10h 05m
Waning Gibbous, 65% of the Moon is Illuminated
Jan 22
Waning Gibbous
Jan 23
Last Quarter
Jan 30
New
Feb 6
First Quarter
Feb 14
Full

Hourly Weather History & Observations

Time (CST) Temp. Windchill Dew Point Humidity Pressure Visibility Wind Dir Wind Speed Gust Speed Precip Events Conditions
12:53 AM 12.0 °F 4.1 °F 5.0 °F 73% 30.26 in 10.0 mi NNW 4.6 mph - N/A   Clear
1:53 AM 10.9 °F - 5.0 °F 77% 30.25 in 10.0 mi Calm Calm - N/A   Clear
2:53 AM 10.0 °F 3.6 °F 5.0 °F 80% 30.25 in 10.0 mi North 3.5 mph - N/A   Clear
3:53 AM 9.0 °F - 5.0 °F 84% 30.24 in 10.0 mi Calm Calm - N/A   Clear
4:53 AM 7.0 °F - 3.0 °F 84% 30.23 in 10.0 mi Calm Calm - N/A   Clear
5:53 AM 7.0 °F 0.1 °F 3.9 °F 87% 30.23 in 10.0 mi SE 3.5 mph - N/A   Clear
6:53 AM 9.0 °F 0.6 °F 1.0 °F 70% 30.23 in 10.0 mi South 4.6 mph - N/A   Scattered Clouds
7:53 AM 10.9 °F 1.4 °F 1.9 °F 67% 30.22 in 10.0 mi South 5.8 mph - N/A   Overcast
8:53 AM 12.0 °F 0.5 °F -0.0 °F 59% 30.24 in 10.0 mi SSE 8.1 mph - N/A   Overcast
9:53 AM 14.0 °F 2.0 °F 1.9 °F 59% 30.24 in 10.0 mi South 9.2 mph - N/A   Overcast
10:53 AM 15.1 °F 4.2 °F 3.0 °F 59% 30.21 in 10.0 mi South 8.1 mph - N/A   Overcast
11:53 AM 17.1 °F 5.0 °F 3.9 °F 56% 30.18 in 10.0 mi SSW 10.4 mph - N/A   Overcast
12:53 PM 19.0 °F 7.5 °F 6.1 °F 57% 30.14 in 10.0 mi SW 10.4 mph - N/A   Overcast
1:53 PM 19.9 °F 9.3 °F 9.0 °F 62% 30.11 in 10.0 mi SSW 9.2 mph - N/A   Overcast
2:53 PM 21.0 °F 11.4 °F 10.0 °F 63% 30.12 in 10.0 mi SSW 8.1 mph - N/A   Overcast
3:53 PM 21.9 °F 12.5 °F 9.0 °F 58% 30.14 in 10.0 mi SW 8.1 mph - N/A   Overcast
4:53 PM 21.9 °F 14.5 °F 10.0 °F 60% 30.15 in 10.0 mi WSW 5.8 mph - N/A   Overcast
5:53 PM 23.0 °F 15.8 °F 10.0 °F 58% 30.17 in 10.0 mi SW 5.8 mph - N/A   Overcast
6:53 PM 21.9 °F 12.5 °F 10.9 °F 63% 30.17 in 10.0 mi South 8.1 mph - N/A   Mostly Cloudy
7:53 PM 19.9 °F 14.9 °F 10.9 °F 68% 30.18 in 10.0 mi South 3.5 mph - N/A   Clear
8:53 PM 17.1 °F - 10.0 °F 74% 30.20 in 10.0 mi Calm Calm - N/A   Scattered Clouds
9:53 PM 19.0 °F 12.3 °F 10.0 °F 68% 30.21 in 10.0 mi West 4.6 mph - N/A   Clear
10:53 PM 19.0 °F 8.2 °F 10.0 °F 68% 30.22 in 10.0 mi SW 9.2 mph - N/A   Scattered Clouds
11:53 PM 18.0 °F 11.1 °F 10.0 °F 71% 30.22 in 10.0 mi WSW 4.6 mph - N/A   Clear